Location: Anglesey
(53.1800°N, 4.2200°W)
Time: 10:19:07
(UTC+01:00)

Envisat - Pass Details

Date: 17 October 2017
Orbit: 764 x 766 km, 98.2° (Epoch: 16 October)

Event Time Altitude Azimuth Distance (km) Brightness Sun altitude
Exits shadow 21:48:52 28° 238° (WSW) 1,408 4.5 -31.7°
Maximum altitude 21:50:08 32° 266° (W) 1,303 4.5 -31.9°
Drops below altitude 10° 21:54:41 10° 329° (NNW) 2,314 6.2 -32.5°
Sets 21:57:15 0° 339° (NNW) 3,245 6.9 -32.8°
